When you browse on this site, cookies collect data to enhance your experience and personalize the content and advertising you see.
Visit our Privacy Policy to learn more. By continuing to use the site, you agree to this use of cookies and data.
  • In Lithuania
  • List of Countries
  • For 7 days
  • Water Temperature
  • Satellite Maps
  • Weather Map
  • Weather Widgets
  • user-avatar
    Login

    Hourly Weather Sidi Bu-l-Abbas

    Today, 18 February, Monday

    Time Temperature Precipitation Wind Pressure Humidity
    00:00 +10°C° 0 mm 4 mps 723 mmHg 35%
    01:00 +8°C° 0 mm 4 mps 723 mmHg 38%
    02:00 +8°C° 0 mm 4 mps 722 mmHg 40%
    03:00 +7°C° 0 mm 4 mps 722 mmHg 42%
    04:00 +7°C° 0 mm 4 mps 722 mmHg 44%
    05:00 +7°C° 0 mm 4 mps 722 mmHg 45%
    06:00 +6°C° 0 mm 4 mps 721 mmHg 47%
    07:00 +8°C° 0 mm 4 mps 722 mmHg 44%
    08:00 +10°C° 0 mm 4 mps 722 mmHg 42%
    09:00 +12°C° 0 mm 4 mps 722 mmHg 39%
    10:00 +14°C° 0 mm 4 mps 722 mmHg 35%
    11:00 +17°C° 0 mm 4 mps 721 mmHg 30%
    12:00 +18°C° 0 mm 4 mps 721 mmHg 26%
    13:00 +19°C° 0 mm 3 mps 721 mmHg 25%
    14:00 +19°C° 0 mm 3 mps 720 mmHg 24%
    15:00 +20°C° 0 mm 2 mps 720 mmHg 23%
    16:00 +18°C° 0 mm 2 mps 719 mmHg 29%
    17:00 +16°C° 0 mm 1 mps 719 mmHg 36%
    18:00 +14°C° 0 mm 1 mps 719 mmHg 42%
    19:00 +14°C° 0 mm 1 mps 719 mmHg 43%
    20:00 +13°C° 0 mm 1 mps 719 mmHg 45%
    21:00 +12°C° 0 mm 1 mps 719 mmHg 46%
    22:00 +12°C° 0 mm 2 mps 720 mmHg 43%
    23:00 +12°C° 0 mm 2 mps 720 mmHg 40%

    Tomorrow, 19 February, Tuesday

    Time Temperature Precipitation Wind Pressure Humidity
    00:00 +11°C° 0 mm 3 mps 720 mmHg 36%
    01:00 +11°C° 0 mm 3 mps 720 mmHg 38%
    02:00 +11°C° 0 mm 3 mps 720 mmHg 39%
    03:00 +10°C° 0 mm 2 mps 720 mmHg 40%
    04:00 +10°C° 0 mm 2 mps 720 mmHg 46%
    05:00 +10°C° 0 mm 2 mps 720 mmHg 51%
    06:00 +9°C° 0 mm 2 mps 720 mmHg 56%
    07:00 +10°C° 0 mm 2 mps 720 mmHg 56%
    08:00 +12°C° 0 mm 2 mps 721 mmHg 57%
    09:00 +13°C° 0 mm 2 mps 721 mmHg 58%
    10:00 +14°C° 0 mm 3 mps 721 mmHg 55%
    11:00 +15°C° 0 mm 4 mps 721 mmHg 53%
    12:00 +17°C° 0 mm 4 mps 722 mmHg 50%
    13:00 +17°C° 0 mm 4 mps 721 mmHg 51%
    14:00 +17°C° 0 mm 4 mps 721 mmHg 51%
    15:00 +17°C° 0 mm 4 mps 720 mmHg 52%
    16:00 +16°C° 0.5 mm 3 mps 720 mmHg 57%
    17:00 +13°C° 0.5 mm 3 mps 720 mmHg 63%
    18:00 +12°C° 0.5 mm 3 mps 720 mmHg 68%
    19:00 +12°C° 0.1 mm 2 mps 721 mmHg 71%
    20:00 +12°C° 0.1 mm 2 mps 721 mmHg 74%
    21:00 +11°C° 0.1 mm 1 mps 722 mmHg 77%
    22:00 +10°C° 0 mm 1 mps 722 mmHg 79%
    23:00 +10°C° 0 mm 1 mps 722 mmHg 82%

    Day after tomorrow, 20 February, Wednesday

    Time Temperature Precipitation Wind Pressure Humidity
    00:00 +9°C° 0 mm 1 mps 722 mmHg 84%
    01:00 +9°C° 0 mm 1 mps 722 mmHg 86%
    02:00 +8°C° 0 mm 1 mps 722 mmHg 87%
    03:00 +8°C° 0 mm 1 mps 722 mmHg 89%
    04:00 +8°C° 0 mm 1 mps 722 mmHg 90%
    05:00 +6°C° 0 mm 2 mps 722 mmHg 91%
    06:00 +6°C° 0 mm 2 mps 722 mmHg 93%
    07:00 +7°C° 0 mm 2 mps 723 mmHg 90%
    08:00 +8°C° 0 mm 2 mps 723 mmHg 86%
    09:00 +10°C° 0 mm 2 mps 724 mmHg 83%
    10:00 +10°C° 0 mm 2 mps 724 mmHg 78%
    11:00 +11°C° 0 mm 3 mps 724 mmHg 73%
    12:00 +12°C° 0 mm 3 mps 724 mmHg 68%
    13:00 +12°C° 0 mm 4 mps 724 mmHg 65%
    14:00 +13°C° 0 mm 4 mps 724 mmHg 61%
    15:00 +13°C° 0 mm 5 mps 724 mmHg 58%
    16:00 +12°C° 0 mm 4 mps 724 mmHg 65%
    17:00 +11°C° 0 mm 3 mps 724 mmHg 71%
    18:00 +9°C° 0 mm 3 mps 724 mmHg 78%
    19:00 +8°C° 0 mm 2 mps 724 mmHg 83%
    20:00 +8°C° 0 mm 1 mps 725 mmHg 89%
    21:00 +6°C° 0 mm 0 mps 726 mmHg 94%
    22:00 +6°C° 0 mm 0 mps 726 mmHg 95%
    23:00 +6°C° 0 mm 0 mps 726 mmHg 95%

    21 February, Thursday

    Time Temperature Precipitation Wind Pressure Humidity
    00:00 +6°C° 0 mm 1 mps 726 mmHg 95%
    01:00 +5°C° 0 mm 0 mps 726 mmHg 96%
    02:00 +5°C° 0 mm 0 mps 726 mmHg 96%
    03:00 +4°C° 0 mm 0 mps 725 mmHg 96%
    04:00 +4°C° 0 mm 0 mps 726 mmHg 96%
    05:00 +4°C° 0 mm 0 mps 726 mmHg 96%
    06:00 +5°C° 0 mm 1 mps 726 mmHg 96%
    07:00 +5°C° 0 mm 0 mps 727 mmHg 88%
    08:00 +7°C° 0 mm 0 mps 727 mmHg 81%
    09:00 +9°C° 0 mm 0 mps 728 mmHg 74%
    10:00 +11°C° 0 mm 1 mps 728 mmHg 65%
    11:00 +13°C° 0 mm 1 mps 728 mmHg 57%
    12:00 +14°C° 0 mm 1 mps 728 mmHg 48%
    13:00 +15°C° 0 mm 2 mps 728 mmHg 46%
    14:00 +16°C° 0 mm 2 mps 728 mmHg 44%
    15:00 +16°C° 0 mm 3 mps 728 mmHg 42%
    16:00 +14°C° 0 mm 3 mps 728 mmHg 49%
    17:00 +12°C° 0 mm 3 mps 728 mmHg 56%
    18:00 +11°C° 0 mm 3 mps 728 mmHg 63%
    19:00 +10°C° 0 mm 2 mps 728 mmHg 69%
    20:00 +9°C° 0 mm 2 mps 728 mmHg 76%
    21:00 +9°C° 0 mm 1 mps 729 mmHg 83%
    22:00 +9°C° 0 mm 1 mps 729 mmHg 83%
    23:00 +8°C° 0 mm 1 mps 729 mmHg 84%

    22 February, Friday

    Time Temperature Precipitation Wind Pressure Humidity
    00:00 +8°C° 0 mm 1 mps 728 mmHg 84%
    01:00 +8°C° 0 mm 1 mps 728 mmHg 83%
    02:00 +7°C° 0 mm 1 mps 728 mmHg 82%
    03:00 +6°C° 0 mm 0 mps 728 mmHg 82%
    04:00 +6°C° 0 mm 0 mps 728 mmHg 82%
    05:00 +5°C° 0 mm 0 mps 728 mmHg 82%
    06:00 +5°C° 0 mm 0 mps 728 mmHg 82%
    07:00 +8°C° 0 mm 0 mps 728 mmHg 71%
    08:00 +11°C° 0 mm 1 mps 729 mmHg 60%
    09:00 +13°C° 0 mm 1 mps 729 mmHg 50%
    10:00 +15°C° 0 mm 1 mps 729 mmHg 44%
    11:00 +16°C° 0 mm 1 mps 729 mmHg 38%
    12:00 +19°C° 0 mm 1 mps 729 mmHg 32%
    13:00 +18°C° 0 mm 2 mps 729 mmHg 32%
    14:00 +18°C° 0 mm 3 mps 728 mmHg 33%
    15:00 +19°C° 0 mm 4 mps 728 mmHg 34%
    16:00 +17°C° 0 mm 3 mps 727 mmHg 42%
    17:00 +15°C° 0 mm 2 mps 727 mmHg 51%
    18:00 +13°C° 0 mm 2 mps 727 mmHg 59%
    19:00 +12°C° 0 mm 1 mps 727 mmHg 65%
    20:00 +11°C° 0 mm 1 mps 727 mmHg 70%
    21:00 +9°C° 0 mm 0 mps 727 mmHg 75%
    22:00 +8°C° 0 mm 0 mps 727 mmHg 75%
    23:00 +8°C° 0 mm 0 mps 727 mmHg 76%

    23 February, Saturday

    Time Temperature Precipitation Wind Pressure Humidity
    00:00 +7°C° 0 mm 0 mps 727 mmHg 77%
    01:00 +7°C° 0 mm 0 mps 727 mmHg 78%
    02:00 +7°C° 0 mm 0 mps 726 mmHg 80%
    03:00 +6°C° 0 mm 0 mps 726 mmHg 81%
    04:00 +6°C° 0 mm 0 mps 726 mmHg 83%
    05:00 +5°C° 0 mm 0 mps 726 mmHg 84%
    06:00 +6°C° 0 mm 1 mps 726 mmHg 86%
    07:00 +7°C° 0 mm 0 mps 727 mmHg 78%
    08:00 +9°C° 0 mm 0 mps 728 mmHg 69%
    09:00 +11°C° 0 mm 0 mps 728 mmHg 61%
    10:00 +13°C° 0 mm 1 mps 728 mmHg 53%
    11:00 +15°C° 0 mm 1 mps 728 mmHg 46%
    12:00 +16°C° 0 mm 2 mps 729 mmHg 38%
    13:00 +16°C° 0 mm 3 mps 728 mmHg 38%
    14:00 +17°C° 0 mm 3 mps 728 mmHg 38%
    15:00 +17°C° 0 mm 3 mps 728 mmHg 38%
    16:00 +16°C° 0 mm 3 mps 727 mmHg 46%
    17:00 +13°C° 0 mm 3 mps 727 mmHg 55%
    18:00 +12°C° 0 mm 3 mps 727 mmHg 64%
    19:00 +10°C° 0 mm 2 mps 728 mmHg 72%
    20:00 +10°C° 0 mm 1 mps 728 mmHg 80%
    21:00 +8°C° 0 mm 0 mps 728 mmHg 88%
    22:00 +8°C° 0 mm 0 mps 728 mmHg 89%
    23:00 +7°C° 0 mm 0 mps 728 mmHg 91%
    Show more